Regional Weather Roundup
Issued by NWS Charleston, WV

Home | Current Version | Previous Version | Text Only | Print | Product List | Glossary On
Versions: 1 2 3 4 5 6 7 8 9 10 11 12 13 14 15 16 17 18 19 20 21 22 23 24 25 26 27 28 29 30 31 32 33 34 35 36 37 38 39 40 41 42 43 44 45 46 47 48 49 50
000
ASUS41 KRLX 170110
RWRRLX
West Virginia Regional Weather Roundup
National Weather Service Charleston WV
800 PM EST TUE JAN 16 2018

Note: "fair" indicates few or no clouds below 12,000 feet with no
significant weather and/or obstructions to visibility.

WVZ003-170200-
Northern Panhandle of West Virginia

CITY           SKY/WX    TMP DP  RH WIND       PRES   REMARKS
WHEELING       CLOUDY    13   6  74 W13       30.43R WCI  -2
$$

WVZ009-170200-
Northwest West Virginia

CITY           SKY/WX    TMP DP  RH WIND       PRES   REMARKS
PARKERSBURG      N/A     11   3  70 NW7       30.52R WCI   0
$$

WVZ006-170200-
Western West Virginia

CITY           SKY/WX    TMP DP  RH WIND       PRES   REMARKS
HUNTINGTON     FLURRIES  13   6  74 NW6       30.51R WCI   4
$$

WVZ015-170200-
West Central West Virginia

CITY           SKY/WX    TMP DP  RH WIND       PRES   REMARKS
CHARLESTON     LGT SNOW  17  13  84 NW3       30.47S FOG
$$

WVZ022-031-170200-
North Central West Virginia

CITY           SKY/WX    TMP DP  RH WIND       PRES   REMARKS
CLARKSBURG     LGT SNOW  18  12  77 W10       30.43R WCI   6
MORGANTOWN     LGT SNOW  19  15  84 W6        30.42R FOG
$$

WVZ025-035-042-045-170200-
Southern West Virginia

CITY           SKY/WX    TMP DP  RH WIND       PRES   REMARKS
BECKLEY        LGT SNOW  19  16  88 NW5       30.31S FOG
LOGAN          LGT SNOW  14  12  92 CALM      30.41S
BLUEFIELD      FLURRIES  20  15  81 W10G17    30.28R WCI   9
LEWISBURG      FLURRIES  26  22  83 W3        30.28R
$$

WVZ047-170200-
Northern Mountains of West Virginia

CITY           SKY/WX    TMP DP  RH WIND       PRES   REMARKS
ELKINS         LGT SNOW  21  15  78 CALM      30.34S
$$

WVZ052-170200-
Eastern Panhandle of West Virginia

CITY           SKY/WX    TMP DP  RH WIND       PRES   REMARKS
MARTINSBURG    LGT SNOW  29  28  96 N5        30.34S FOG
PETERSBURG     LGT SNOW  26  25  94 CALM      30.34S
$$



USA.gov is the U.S. government's official web portal to all federal, state and local government web resources and services.